Weather History for Elko, NV

Change the Weather History Date:

Thursday, September 27, 2012

  Actual Average Record
Temperature  
Mean Temperature 61 °F 54 °F  
Max Temperature 80 °F 74 °F 91 °F (2010)
Min Temperature 42 °F 35 °F 13 °F (1889)
Degree Days  
Heating Degree Days 4 11  
Month to date heating degree days 67 172  
Since 1 July heating degree days 67 223  
Cooling Degree Days 0 0  
Month to date cooling degree days 22 20  
Year to date cooling degree days 682 382  
Growing Degree Days 12 (Base 50)    
Moisture  
Dew Point 36 °F    
Average Humidity 44    
Maximum Humidity 71    
Minimum Humidity 17    
Precipitation  
Precipitation 0.00 in 0.03 in 0.56 in (1983)
Month to date precipitation 0.09 0.51  
Year to date precipitation 4.99 6.79  
Snow  
Snow 0.00 in 0.00 in 0.00 in (1888)
Month to date snowfall 0.0 0.1  
Since 1 July snowfall 0.0 0.1  
Since 1 September snowfall 0.0 0.1  
Snow Depth 0.00 in    
Sea Level Pressure  
Sea Level Pressure 30.05 in    
Wind  
Wind Speed 2 mph (East)    
Max Wind Speed 13 mph    
Max Gust Speed 16 mph    
Visibility 9 miles    
Events      
T = Trace of Precipitation, MM = Missing Value Source: NWS Daily Summary

Daily Weather History Graph

Daily Weather History Graph

Search for Another Location

Airport:

Trip Planner

Search our weather history database for the weather conditions in past years. The results will help you decide how hot, cold, wet, or windy it might be!

Date:

Astronomy

Sep. 27, 2012 Rise Set
Actual Time 6:36 AM PDT 6:30 PM PDT
Civil Twilight 6:08 AM PDT 6:58 PM PDT
Nautical Twilight 5:37 AM PDT 7:29 PM PDT
Astronomical Twilight 5:04 AM PDT 8:02 PM PDT
Moon 5:05 PM PDT (9/27) 4:09 AM PDT (9/27)
Length of Visible Light 12h 49m
Length of Day
11h 54m
Waxing Gibbous, 94% of the Moon is Illuminated
Sep 27
Waxing Gibbous
Sep 29
Full
Oct 8
Last Quarter
Oct 15
New
Oct 21
First Quarter

Hourly Weather History & Observations

Time (PDT) Temp. Windchill Dew Point Humidity Pressure Visibility Wind Dir Wind Speed Gust Speed Precip Events Conditions
12:56 AM 48.0 °F - 37.9 °F 68% 30.06 in 10.0 mi Calm Calm - N/A   Clear
1:56 AM 48.0 °F - 36.0 °F 63% 30.05 in 10.0 mi Calm Calm - N/A   Partly Cloudy
2:56 AM 46.9 °F - 37.0 °F 68% 30.05 in 10.0 mi Calm Calm - N/A   Clear
3:56 AM 44.1 °F - 36.0 °F 73% 30.07 in 10.0 mi Calm Calm - N/A   Clear
4:56 AM 46.9 °F - 37.9 °F 71% 30.07 in 9.0 mi East 3.5 mph - N/A   Clear
5:56 AM 45.0 °F 43.5 °F 36.0 °F 71% 30.09 in 8.0 mi ENE 3.5 mph - N/A   Clear
6:56 AM 44.1 °F 42.5 °F 36.0 °F 73% 30.13 in 5.0 mi ENE 3.5 mph - N/A   Haze
7:56 AM 48.0 °F - 37.0 °F 66% 30.13 in 6.0 mi ENE 5.8 mph - N/A   Haze
8:56 AM 55.0 °F - 37.9 °F 53% 30.14 in 7.0 mi Calm Calm - N/A   Clear
9:56 AM 62.1 °F - 39.9 °F 44% 30.11 in 8.0 mi Calm Calm - N/A   Clear
10:56 AM 68.0 °F - 39.9 °F 36% 30.09 in 10.0 mi Calm Calm - N/A   Clear
11:56 AM 75.0 °F - 39.9 °F 28% 30.05 in 10.0 mi Calm Calm - N/A   Clear
12:56 PM 77.0 °F - 37.0 °F 24% 30.04 in 10.0 mi Calm Calm - N/A   Clear
1:56 PM 78.1 °F - 36.0 °F 22% 30.02 in 10.0 mi ESE 6.9 mph - N/A   Clear
2:56 PM 79.0 °F - 35.1 °F 20% 30.00 in 10.0 mi SW 6.9 mph - N/A   Clear
3:56 PM 79.0 °F - 32.0 °F 18% 30.00 in 10.0 mi Variable 3.5 mph - N/A   Clear
4:56 PM 79.0 °F - 30.9 °F 17% 29.98 in 10.0 mi SW 6.9 mph - N/A   Clear
5:56 PM 75.9 °F - 34.0 °F 22% 29.98 in 10.0 mi Calm Calm - N/A   Clear
6:56 PM 69.1 °F - 34.0 °F 27% 30.00 in 10.0 mi Calm Calm - N/A   Clear
7:56 PM 63.0 °F - 33.1 °F 33% 30.02 in 10.0 mi Calm Calm - N/A   Clear
8:56 PM 59.0 °F - 32.0 °F 36% 30.02 in 10.0 mi Calm Calm - N/A   Clear
9:56 PM 54.0 °F - 34.0 °F 47% 30.03 in 10.0 mi Calm Calm - N/A   Clear
10:56 PM 54.0 °F - 34.0 °F 47% 30.01 in 10.0 mi Calm Calm - N/A   Clear
11:56 PM 51.1 °F - 30.0 °F 44% 30.02 in 10.0 mi East 6.9 mph - N/A   Clear